Waarnemingen

Advertentie
Mijn weer
Cannes, Frankrijk (7684): temperatuur & dauwpunt: 14.06.2018 17:00:00 - 20.06.2018 17:00:00 (CEST)Cannes, Frankrijk (7684): temperatuur 5cm: 14.06.2018 17:00:00 - 20.06.2018 17:00:00 (CEST)Cannes, Frankrijk (7684): windsnelheid & windstoten: 14.06.2018 17:00:00 - 20.06.2018 17:00:00 (CEST)Cannes, Frankrijk (7684): windrichting: 14.06.2018 17:00:00 - 20.06.2018 17:00:00 (CEST)Cannes, Frankrijk (7684): luchtdruk: 14.06.2018 17:00:00 - 20.06.2018 17:00:00 (CEST)Cannes, Frankrijk (7684): zicht: 14.06.2018 17:00:00 - 20.06.2018 17:00:00 (CEST)Cannes, Frankrijk (7684): neerslag: 14.06.2018 17:00:00 - 20.06.2018 17:00:00 (CEST)
Datum & Tijd tt [°C] td [°C] tt 5cm [°C] ff [km/u] ff [kn] fx [km/u] fx [kn] dd ppp [hPa] vv [km] rr [mm]
20.06.2018 17:00:00 30,9 11,3 38,5 5 3 15 8 ZZO 1018,5 60 0,0
20.06.2018 16:00:00 29,5 12,4 37,7 11 6 16 9 Z 1019,1 49 0,0
20.06.2018 15:00:00 29,7 12,6 37,3 10 5 21 12 Z 1019,3 53 0,0
20.06.2018 14:00:00 29,4 12,8 37,2 11 6 20 11 ZZO 1019,6 42 0,0
20.06.2018 13:00:00 29,8 12,2 37,6 10 5 20 11 Z 1020,1 43 0,0
20.06.2018 12:00:00 30,0 10,5 35,2 10 5 18 10 ZO 1020,4 38 0,0
20.06.2018 11:00:00 28,9 13,9 31,5 8 4 19 11 ONO 1020,4 20 0,0
20.06.2018 10:00:00 26,3 17,1 26,0 4 2 11 6 N 1020,3 28 0,0
20.06.2018 09:00:00 23,5 17,0 22,0 6 3 13 7 N 1020,0 20 0,0
20.06.2018 08:00:00 21,3 16,3 19,6 8 4 14 7 N 1019,8 28 0,0
20.06.2018 07:00:00 19,7 15,8 17,9 8 4 18 10 N 1019,5 27 0,0
20.06.2018 06:00:00 19,2 15,5 17,6 8 4 14 7 N 1018,9 31 0,0
20.06.2018 05:00:00 19,8 15,2 17,4 5 3 10 5 N 1018,6 37 0,0
20.06.2018 04:00:00 20,2 15,2 17,7 6 3 12 6 N 1018,4 40 0,0
20.06.2018 03:00:00 20,0 15,0 17,4 8 4 11 6 N 1018,5 41 0,0
20.06.2018 02:00:00 20,8 15,1 18,2 8 4 10 6 N 1018,8 44 0,0
20.06.2018 01:00:00 21,0 15,3 18,5 8 4 11 6 N 1018,9 44 0,0
20.06.2018 00:00:00 21,8 15,6 18,2 5 3 8 5 N 1018,9 45 0,0
19.06.2018 23:00:00 22,4 15,7 19,3 4 2 8 5 N 1018,6 51 0,0
19.06.2018 22:00:00 23,6 15,9 19,7 4 2 8 5 N 1018,1 50 0,0
19.06.2018 21:00:00 25,3 17,0 22,0 2 1 6 4 Z 1017,6 54 0,0
19.06.2018 20:00:00 26,7 16,0 26,7 5 3 16 9 ZZO 1017,6 51 0,0
19.06.2018 19:00:00 27,6 13,5 31,4 7 4 14 8 ZZO 1017,9 20 0,0
19.06.2018 18:00:00 27,7 14,7 32,6 13 7 17 9 ZZO 1018,4 52 0,0
19.06.2018 17:00:00 28,5 14,0 35,5 10 5 17 9 ZZO 1018,7 53 0,0
19.06.2018 16:00:00 28,5 15,1 36,4 9 5 18 10 ZZO 1019,0 20 0,0
19.06.2018 15:00:00 28,3 17,2 36,7 11 6 19 11 ZZO 1019,3 37 0,0
19.06.2018 14:00:00 27,7 16,9 36,3 11 6 22 12 Z 1019,5 35 0,0
19.06.2018 13:00:00 27,9 16,2 35,2 14 8 24 13 ZZO 1019,6 34 0,0
19.06.2018 12:00:00 28,4 16,7 35,2 13 7 22 12 ZZO 1019,5 36 0,0
19.06.2018 11:00:00 28,7 16,6 34,5 12 6 21 11 ZZO 1019,5 20 0,0
19.06.2018 10:00:00 28,7 14,9 31,9 8 4 18 10 O 1019,4 57 0,0
19.06.2018 09:00:00 27,0 16,6 27,6 6 3 10 6 NNW 1019,3 19 0,0
19.06.2018 08:00:00 22,9 16,7 19,8 6 3 10 6 N 1018,7 32 0,0
19.06.2018 07:00:00 20,0 15,6 17,4 5 3 12 7 N 1018,5 37 0,0
19.06.2018 06:00:00 19,0 15,3 17,3 7 4 13 7 N 1017,9 37 0,0
19.06.2018 05:00:00 19,2 15,5 17,2 6 4 12 7 N 1017,5 36 0,0
19.06.2018 04:00:00 19,2 15,5 17,4 7 4 14 8 N 1017,4 36 0,0
19.06.2018 03:00:00 19,5 15,8 17,6 8 5 14 8 N 1017,3 35 0,0
19.06.2018 02:00:00 19,7 15,8 17,7 6 3 11 6 N 1017,2 38 0,0
19.06.2018 01:00:00 20,8 16,0 17,7 6 3 11 6 N 1017,2 39 0,0
19.06.2018 00:00:00 21,5 16,0 17,9 2 1 12 6 NO 1017,3 48 0,0
18.06.2018 23:00:00 22,3 16,1 19,2 5 3 9 5 N 1016,8 47 0,0
18.06.2018 22:00:00 23,3 15,6 19,7 6 3 7 4 N 1016,5 58 0,0
18.06.2018 21:00:00 25,3 16,4 22,2 4 2 8 5 N 1016,0 53 0,0
18.06.2018 20:00:00 26,1 15,5 25,5 4 2 11 6 ZZO 1016,0 60 0,0
18.06.2018 19:00:00 26,5 15,5 26,5 8 4 14 7 Z 1015,9 60 0,0
18.06.2018 18:00:00 28,2 15,5 31,2 7 4 14 8 Z 1016,1 51 0,0
18.06.2018 17:00:00 28,3 14,9 36,1 9 5 16 9 Z 1016,2 48 0,0
18.06.2018 16:00:00 27,4 18,1 36,0 9 5 18 10 ZZO 1016,3 20 0,0
18.06.2018 15:00:00 27,8 16,7 36,3 8 4 21 11 ZZO 1016,3 38 0,0
18.06.2018 14:00:00 26,9 19,8 36,1 11 6 16 9 Z 1016,4 36 0,0
18.06.2018 13:00:00 26,4 19,8 34,6 10 5 19 10 Z 1016,5 38 0,0
18.06.2018 12:00:00 26,0 20,3 33,5 11 6 18 10 Z 1016,2 20 0,0
18.06.2018 11:00:00 26,2 18,1 32,5 9 5 16 8 Z 1016,1 20 0,0
18.06.2018 10:00:00 25,8 18,0 27,0 0 0 5 3 N 1016,1 19 0,0
18.06.2018 09:00:00 22,9 17,6 24,1 3 2 11 6 N 1016,0 39 0,0
18.06.2018 08:00:00 20,3 16,7 17,7 5 3 11 6 N 1015,2 20 0,0
18.06.2018 07:00:00 18,3 16,1 17,4 7 4 16 9 N 1015,0 30 0,0
18.06.2018 06:00:00 18,4 16,2 17,3 7 4 14 7 NNO 1014,7 30 0,0
18.06.2018 05:00:00 18,4 16,2 17,3 7 4 12 6 N 1014,3 30 0,0
18.06.2018 04:00:00 18,8 16,6 17,6 9 5 16 9 N 1014,2 31 0,0
18.06.2018 03:00:00 18,9 16,7 17,2 6 4 10 6 N 1014,1 32 0,0
18.06.2018 02:00:00 19,3 16,9 17,9 6 4 10 6 N 1014,1 37 0,0
18.06.2018 01:00:00 20,0 17,4 17,8 5 3 10 5 N 1014,0 30 0,0
18.06.2018 00:00:00 20,8 17,6 17,8 2 1 7 4 NNO 1014,1 41 0,0
17.06.2018 23:00:00 21,6 18,0 18,2 4 2 6 4 N 1014,3 41 0,0
17.06.2018 22:00:00 22,9 18,2 21,2 3 2 12 7 N 1014,1 50 0,0
17.06.2018 21:00:00 23,9 18,1 23,6 2 1 8 4 WZW 1013,7 47 0,0
17.06.2018 20:00:00 23,8 18,7 22,1 3 2 10 5 ZW 1013,8 47 0,0
17.06.2018 19:00:00 23,3 19,0 23,3 4 2 11 6 ZZO 1013,8 20 0,0
17.06.2018 18:00:00 23,4 19,1 24,6 8 4 16 8 Z 1014,1 43 0,0
17.06.2018 17:00:00 24,3 19,4 28,1 11 6 18 10 Z 1014,1 34 0,0
17.06.2018 16:00:00 25,3 19,7 34,6 11 6 18 10 Z 1014,4 19 0,0
17.06.2018 15:00:00 25,4 20,2 34,2 11 6 21 11 Z 1014,6 36 0,0
17.06.2018 14:00:00 25,1 19,7 33,1 12 6 20 11 ZZO 1014,9 37 0,0
17.06.2018 13:00:00 25,3 19,7 32,8 13 7 23 12 Z 1014,9 4,0 0,0
17.06.2018 12:00:00 25,4 17,1 31,1 11 6 21 11 ZZO 1014,9 2,2 0,0
17.06.2018 11:00:00 24,8 19,0 31,1 13 7 19 10 Z 1014,5 49 0,0
17.06.2018 10:00:00 24,7 18,2 30,8 7 4 11 6 ZW 1014,3 54 0,0
17.06.2018 09:00:00 24,2 17,9 25,7 2 1 5 3 ZW 1014,0 54 0,0
17.06.2018 08:00:00 20,7 16,3 17,4 4 2 10 6 N 1013,8 52 0,0
17.06.2018 07:00:00 17,9 15,2 16,5 5 3 13 7 NNO 1013,6 47 0,0
17.06.2018 06:00:00 17,6 15,2 16,1 8 4 13 7 N 1013,4 45 0,0
17.06.2018 05:00:00 17,8 15,4 16,3 5 3 9 5 N 1013,0 42 0,0
17.06.2018 04:00:00 17,9 15,5 16,8 5 3 12 7 N 1012,9 44 0,0
17.06.2018 03:00:00 18,6 15,7 17,2 9 5 14 7 N 1013,2 55 0,0
17.06.2018 02:00:00 19,3 16,0 17,7 5 3 11 6 N 1012,9 53 0,0
17.06.2018 01:00:00 19,6 16,2 18,2 7 4 11 6 N 1012,9 53 0,0
17.06.2018 00:00:00 20,3 16,1 17,4 5 3 9 5 N 1012,8 52 0,0
16.06.2018 23:00:00 20,9 16,3 18,4 5 3 8 4 N 1012,6 50 0,0
16.06.2018 22:00:00 22,4 17,1 19,6 3 2 6 3 N 1012,3 35 0,0
16.06.2018 21:00:00 23,6 16,9 21,3 4 2 10 5 N 1011,8 58 0,0
16.06.2018 20:00:00 24,6 17,8 24,3 7 4 17 9 ONO 1012,0 50 0,0
16.06.2018 19:00:00 24,8 18,5 27,7 11 6 20 11 O 1012,0 20 0,0
16.06.2018 18:00:00 25,1 18,8 30,1 8 4 21 12 ZO 1012,0 48 0,0
16.06.2018 17:00:00 24,8 17,8 28,7 13 7 24 13 ZO 1012,3 41 0,0
16.06.2018 16:00:00 25,3 17,2 32,1 12 7 23 12 ZO 1012,6 42 0,0
16.06.2018 15:00:00 25,6 18,0 32,9 11 6 23 13 ZZO 1013,0 46 0,0
16.06.2018 14:00:00 25,6 18,0 32,7 14 7 21 12 Z 1013,1 49 0,0
16.06.2018 13:00:00 25,6 16,7 32,5 15 8 23 12 Z 1013,2 7 0,0
16.06.2018 12:00:00 26,3 16,2 32,7 16 9 22 12 Z 1013,0 10 0,0
16.06.2018 11:00:00 27,1 11,2 31,9 8 4 15 8 ZZO 1012,9 60 0,0
16.06.2018 10:00:00 25,6 15,6 31,5 8 5 12 7 ZZW 1013,0 40 0,0
16.06.2018 09:00:00 24,4 15,9 26,5 2 1 8 5 N 1012,9 49 0,0
16.06.2018 08:00:00 20,8 15,3 18,4 5 3 12 7 NNO 1012,8 54 0,0
16.06.2018 07:00:00 18,1 14,8 16,1 4 2 14 7 N 1012,7 50 0,0
16.06.2018 06:00:00 17,1 14,4 15,5 8 4 12 6 N 1012,2 60 0,0
16.06.2018 05:00:00 17,8 14,5 16,0 8 4 10 6 N 1012,0 60 0,0
16.06.2018 04:00:00 18,0 14,5 15,9 3 1 8 5 N 1011,9 60 0,0
16.06.2018 03:00:00 18,7 14,6 16,6 5 3 10 5 N 1011,9 60 0,0
16.06.2018 02:00:00 18,9 14,8 17,1 6 3 10 5 N 1011,9 60 0,0
16.06.2018 01:00:00 19,3 15,0 17,3 4 2 8 4 N 1011,9 60 0,0
16.06.2018 00:00:00 20,1 15,1 17,7 4 2 10 5 NNW 1011,6 60 0,0
15.06.2018 23:00:00 21,4 15,2 19,1 4 2 8 4 NNO 1011,5 59 0,0
15.06.2018 22:00:00 22,2 15,3 19,1 0 0 6 3 N 1011,3 60 0,0
15.06.2018 21:00:00 23,0 14,3 20,5 0 0 10 5 N 1011,0 18 0,0
15.06.2018 20:00:00 23,9 14,9 24,4 8 4 17 9 O 1010,8 17 0,0
15.06.2018 19:00:00 25,3 15,6 26,6 9 5 16 8 ZO 1010,7 60 0,0
15.06.2018 18:00:00 24,9 16,1 26,5 10 6 23 13 ZZO 1010,8 57 0,0
15.06.2018 17:00:00 24,9 16,1 28,2 14 7 26 14 ZZO 1010,9 60 0,0
15.06.2018 16:00:00 24,9 16,6 29,0 13 7 21 12 ZZO 1011,0 59 0,0
15.06.2018 15:00:00 25,6 18,3 31,5 13 7 23 12 ZZO 1010,9 0,4 0,0
15.06.2018 14:00:00 26,0 16,3 34,9 14 8 20 11 ZZO 1011,1 56 0,0
15.06.2018 13:00:00 25,9 14,4 33,4 10 5 18 10 ZZO 1011,3 60 0,0
15.06.2018 12:00:00 26,1 14,9 32,5 10 6 16 9 Z 1011,4 16 0,0
15.06.2018 11:00:00 25,6 15,3 29,8 7 4 16 9 Z 1011,2 20 0,0
15.06.2018 10:00:00 23,9 16,2 28,0 9 5 14 7 Z 1011,0 60 0,0
15.06.2018 09:00:00 24,0 15,2 25,7 0 0 11 6 N 1010,9 59 0,0
15.06.2018 08:00:00 20,0 14,6 17,6 6 4 14 8 N 1010,6 60 0,0
15.06.2018 07:00:00 17,4 13,9 15,1 9 5 16 9 N 1010,3 60 0,0
15.06.2018 06:00:00 16,3 13,6 14,7 7 4 11 6 N 1010,0 60 0,0
15.06.2018 05:00:00 16,3 13,6 14,9 6 3 13 7 N 1009,5 60 0,0
15.06.2018 04:00:00 16,5 13,8 15,0 6 3 11 6 NNW 1009,5 60 0,0
15.06.2018 03:00:00 16,6 13,9 15,1 6 3 11 6 N 1009,6 60 0,0
15.06.2018 02:00:00 17,3 14,0 15,3 6 3 10 6 N 1009,6 60 0,0
15.06.2018 01:00:00 18,0 14,3 16,2 6 3 11 6 N 1009,7 60 0,0
15.06.2018 00:00:00 19,0 14,7 17,0 5 3 10 6 N 1009,9 60 0,0
14.06.2018 23:00:00 20,2 14,3 17,4 7 4 12 7 N 1009,9 60 0,0
14.06.2018 22:00:00 22,3 12,5 17,2 3 2 22 12 NW 1009,5 60 0,0
14.06.2018 21:00:00 23,8 12,1 21,2 9 5 18 10 ZW 1009,0 60 0,0
14.06.2018 20:00:00 25,9 13,1 27,1 6 4 13 7 ZZW 1008,9 60 0,0
14.06.2018 19:00:00 26,4 12,5 30,6 9 5 25 14 WZW 1008,8 60 0,0
14.06.2018 18:00:00 26,7 13,1 26,1 12 6 19 10 ZW 1008,9 60 0,0
14.06.2018 17:00:00 25,2 12,1 24,2 15 8 23 13 Z 1009,0 60 0,0

tt = temperatuur
td = dauwpunt
tt 5cm = temperatuur 5cm
ff = windsnelheid
fx = windstoten
dd = windrichting
ppp = luchtdruk
vv = zicht
rr = neerslag

Weerstations in de omgeving